Location: Squirrel Cove
(50.1074°N, 124.9139°W)
Time: 19:59:31
(UTC-08:00)

Envisat - Pass Details

Date: 05 December 2022
Orbit: 763 x 765 km, 98.2° (Epoch: 05 February)

Event Time Altitude Azimuth Distance (km) Brightness Sun altitude
Rises 06:44:25 0° 0° (N) 3,247 6.0 -11.8°
Reaches altitude 10° 06:48:07 10° 333° (NNW) 2,315 5.0 -11.3°
Enters shadow 06:49:43 12° 314° (NW) 2,151 4.8 -11.0°
